CW0639 Weather Reports


Display with metric or nautical units.
time (UTC)temp
F
wind
direction
speed
MPH
gust
MPH
rain 1hr
in
rain 24hr
in
rain mn
in
humidity
%
barometer
mb
20260506201852 94 172 4.0 8.0 0.00 0.00 0.00 41 1012.9
20260506200313 94 259 4.0 7.0 0.00 0.00 0.00 39 1013.1
20260506194845 94 174 4.0 9.0 0.00 0.00 0.00 42 1013.3
20260506193313 94 203 3.0 8.0 0.00 0.00 0.00 42 1013.7
20260506191825 93 186 4.0 8.0 0.00 0.00 0.00 43 1013.9
20260506190327 93 198 5.0 10.0 0.00 0.00 0.00 41 1014.1
20260506184835 92 281 3.0 8.0 0.00 0.00 0.00 45 1014.1
20260506183329 92 196 4.0 8.0 0.00 0.00 0.00 45 1014.4
20260506181818 92 227 3.0 6.0 0.00 0.00 0.00 46 1014.6
20260506180321 91 163 2.0 8.0 0.00 0.00 0.00 47 1014.7
20260506174819 90 189 2.0 7.0 0.00 0.00 0.00 50 1014.8
20260506173350 89 129 4.0 9.0 0.00 0.00 0.00 52 1015.0
20260506171831 89 165 4.0 9.0 0.00 0.00 0.00 50 1015.4
20260506170320 88 144 3.0 10.0 0.00 0.00 0.00 52 1015.5
20260506164836 88 162 3.0 10.0 0.00 0.00 0.00 53 1015.6
20260506163323 88 180 4.0 7.0 0.00 0.00 0.00 54 1015.8
20260506161834 87 245 3.0 8.0 0.00 0.00 0.00 58 1016.0
20260506160315 86 153 2.0 7.0 0.00 0.00 0.00 59 1016.0
20260506154846 86 126 4.0 7.0 0.00 0.00 0.00 58 1016.1
20260506153318 84 194 4.0 7.0 0.00 0.00 0.00 60 1016.1
20260506151846 83 220 3.0 9.0 0.00 0.00 0.00 61 1016.0
20260506150334 82 128 3.0 8.0 0.00 0.00 0.00 65 1016.1
20260506144813 81 161 2.0 10.0 0.00 0.00 0.00 66 1015.9
20260506143341 80 171 5.0 9.0 0.00 0.00 0.00 68 1015.8
20260506141828 78 168 4.0 10.0 0.00 0.00 0.00 70 1015.8
20260506140328 76 175 4.0 10.0 0.00 0.00 0.00 73 1015.9
20260506134819 75 201 5.0 10.0 0.00 0.00 0.00 75 1016.0
20260506133327 74 161 4.0 10.0 0.00 0.00 0.00 77 1016.1
20260506131828 73 122 3.0 6.0 0.00 0.00 0.00 79 1016.0
20260506130315 71 159 4.0 9.0 0.00 0.00 0.00 81 1015.9
20260506124816 70 157 2.0 5.0 0.00 0.00 0.00 83 1015.6
20260506123346 68 217 3.0 6.0 0.00 0.00 0.00 85 1015.6
20260506121822 67 183 3.0 6.0 0.00 0.00 0.00 85 1015.4
20260506120315 66 173 2.0 3.0 0.00 0.00 0.00 86 1015.2
20260506114825 65 196 1.0 3.0 0.00 0.00 0.00 87 1015.3
20260506113337 65 173 1.0 2.0 0.00 0.00 0.00 87 1015.2
20260506111821 64 199 2.0 4.0 0.00 0.00 0.00 87 1015.1
20260506110332 64 140 0.0 1.0 0.00 0.00 0.00 86 1014.9
20260506104814 64 140 0.0 0.0 0.00 0.00 0.00 86 1014.8
20260506103344 64 140 0.0 2.0 0.00 0.00 0.00 86 1014.6
20260506101816 64 140 0.0 1.0 0.00 0.00 0.00 85 1014.4
20260506100328 64 140 0.0 1.0 0.00 0.00 0.00 84 1014.6
20260506094819 65 140 0.0 0.0 0.00 0.00 0.00 84 1014.7
20260506093314 65 140 0.0 0.0 0.00 0.00 0.00 83 1014.6
20260506091830 65 140 0.0 1.0 0.00 0.00 0.00 83 1014.3
20260506090326 65 182 0.0 1.0 0.00 0.00 0.00 83 1014.2
20260506084828 66 182 0.0 1.0 0.00 0.00 0.00 83 1014.4
20260506083323 66 182 0.0 1.0 0.00 0.00 0.00 83 1014.3
20260506081814 65 182 1.0 3.0 0.00 0.00 0.00 84 1014.3
20260506080326 65 176 1.0 3.0 0.00 0.00 0.00 84 1014.3
20260506073314 64 194 1.0 2.0 0.00 0.00 0.00 85 1013.9
20260506071817 64 175 1.0 2.0 0.00 0.00 0.00 85 1014.2
20260506070331 64 114 0.0 1.0 0.00 0.00 0.00 84 1014.5
20260506061826 65 114 0.0 0.0 0.00 0.00 0.00 81 1014.8
20260506060312 65 114 0.0 0.0 0.00 0.00 0.00 80 1014.9
20260506050313 66 114 0.0 0.0 0.00 0.00 0.00 75 1015.2
20260506044824 67 114 0.0 0.0 0.00 0.00 0.00 74 1015.5
20260506043338 67 114 0.0 1.0 0.00 0.00 0.00 74 1015.5
20260506041827 68 114 0.0 2.0 0.00 0.00 0.00 73 1015.4
20260506040315 68 114 0.0 0.0 0.00 0.00 0.00 72 1015.6
20260506034825 69 114 0.0 0.0 0.00 0.00 0.00 71 1015.6
20260506033320 69 114 0.0 0.0 0.00 0.00 0.00 70 1015.5
20260506031849 70 114 0.0 2.0 0.00 0.00 0.00 70 1015.4
20260506030320 70 186 0.0 1.0 0.00 0.00 0.00 69 1015.3
20260506024813 70 169 0.0 2.0 0.00 0.00 0.00 69 1015.2
20260506023320 71 148 0.0 3.0 0.00 0.00 0.00 68 1015.2
20260506021818 71 167 1.0 4.0 0.00 0.00 0.00 67 1015.0
20260506020328 71 177 1.0 4.0 0.00 0.00 0.00 66 1014.8
20260506014813 72 131 1.0 2.0 0.00 0.00 0.00 65 1014.6
20260506013328 72 98 2.0 5.0 0.00 0.00 0.00 65 1014.6
20260506011817 72 120 2.0 4.0 0.00 0.00 0.00 65 1014.5
20260506010317 73 160 2.0 4.0 0.00 0.00 0.00 64 1014.5
20260506004831 73 103 1.0 6.0 0.00 0.00 0.00 63 1014.5
20260506003320 74 106 2.0 4.0 0.00 0.00 0.00 62 1014.4
20260506001829 74 90 2.0 5.0 0.00 0.00 0.00 60 1014.4
20260506000316 75 82 2.0 6.0 0.00 0.00 0.00 59 1014.1
20260505234829 76 96 3.0 6.0 0.00 0.00 0.00 58 1014.0
20260505233318 77 101 2.0 6.0 0.00 0.00 0.00 56 1014.0
20260505231815 78 65 2.0 4.0 0.00 0.00 0.00 53 1013.9
20260505230316 79 111 3.0 7.0 0.00 0.00 0.00 51 1013.9
20260505224816 81 74 2.0 7.0 0.00 0.00 0.00 48 1013.8
20260505223326 82 105 2.0 6.0 0.00 0.00 0.00 47 1013.8
20260505221820 83 74 3.0 7.0 0.00 0.00 0.00 45 1013.8
20260505220351 84 56 2.0 7.0 0.00 0.00 0.00 46 1013.7
20260505214842 85 119 2.0 8.0 0.00 0.00 0.00 44 1013.7
20260505213356 85 119 2.0 8.0 0.00 0.00 0.00 44 1013.8
20260505211823 86 22 2.0 9.0 0.00 0.00 0.00 45 1013.8
20260505210336 86 81 3.0 6.0 0.00 0.00 0.00 44 1013.8
20260505204829 86 78 4.0 9.0 0.00 0.00 0.00 44 1014.0
20260505203319 86 115 4.0 9.0 0.00 0.00 0.00 43 1014.0